sat.trackr.live / text

‹ back to catalog

STARLINK-33645

NORAD 63412 · 2025-065P

PAYLOAD ACTIVE UNKNOWN

§ Identity

Operator
Country
US
Launch date
2025-03-31
Launch site
AFETR
Launch vehicle
Mass (kg)
RCS (m²)

Purposes: comms

External: N2YO · Heavens-Above · Gunter

§ Orbital elements

Epoch: 2026-05-25T00:09:49.786272Z

Period
94.27 min
Inclination
43.0020°
Eccentricity
0.0000910
Mean motion
15.27592147 rev/d
Perigee alt
482.4 km
Apogee alt
483.6 km
Semi-major
6,861.1 km
B*
5.6913e-4
RAAN
39.2976°
Arg perigee
272.8589°
Mean anomaly
87.2158°
Rev number
6,447

§ Raw data

STARLINK-336451 63412U 25065P   26145.00682623  .00015438  00000+0  56913-3 0  99962 63412  43.0020  39.2976 0000910 272.8589  87.2158 15.27592147 64479

JSON: /api/v1/satellites/63412 · /tle

For live sub-satellite position, see the globe view (requires WebGL).

§ Visibility from observer

Set your observer location to see the next 7 days of passes ≥ 10°. The values pass through the URL so the page stays shareable.

No JS? Fill the form by hand. The geolocation button needs JavaScript.